TimeCST,TemperatureF,Dew PointF,Humidity,Sea Level PressureIn,VisibilityMPH,Wind Direction,Wind SpeedMPH,Gust SpeedMPH,PrecipitationIn,Events,Conditions,WindDirDegrees,DateUTC
12:52 AM,54.0,48.0,80,29.91,7.0,ESE,9.2,-,N/A,,Overcast,120,2012-11-10 06:52:00
1:52 AM,54.0,48.9,83,29.91,7.0,ESE,8.1,-,N/A,,Overcast,120,2012-11-10 07:52:00
2:52 AM,53.1,48.9,86,29.90,8.0,SE,9.2,-,N/A,,Scattered Clouds,130,2012-11-10 08:52:00
3:52 AM,53.1,50.0,89,29.89,8.0,SSE,8.1,-,N/A,,Mostly Cloudy,160,2012-11-10 09:52:00
4:52 AM,57.9,52.0,81,29.89,10.0,South,11.5,-,N/A,,Mostly Cloudy,170,2012-11-10 10:52:00
6:52 AM,57.9,50.0,75,29.87,10.0,SSE,12.7,-,N/A,,Clear,160,2012-11-10 12:52:00
7:52 AM,57.9,50.0,75,29.88,10.0,South,13.8,-,N/A,,Clear,170,2012-11-10 13:52:00
8:52 AM,60.1,50.0,69,29.86,10.0,South,16.1,-,N/A,,Scattered Clouds,170,2012-11-10 14:52:00
9:52 AM,61.0,50.0,67,29.85,10.0,South,15.0,23.0,0.00,,Mostly Cloudy,170,2012-11-10 15:52:00
10:52 AM,62.1,51.1,67,29.84,10.0,South,18.4,-,0.00,,Scattered Clouds,180,2012-11-10 16:52:00
11:52 AM,66.9,53.1,61,29.79,10.0,South,21.9,28.8,N/A,,Clear,180,2012-11-10 17:52:00
12:52 PM,69.1,54.0,58,29.78,10.0,South,20.7,33.4,N/A,,Clear,190,2012-11-10 18:52:00
1:52 PM,71.1,54.0,55,29.76,10.0,SSW,19.6,26.5,N/A,,Clear,200,2012-11-10 19:52:00
2:52 PM,69.1,54.0,58,29.78,10.0,South,23.0,33.4,N/A,,Clear,190,2012-11-10 20:52:00
3:52 PM,68.0,53.1,59,29.78,10.0,South,18.4,24.2,N/A,,Partly Cloudy,180,2012-11-10 21:52:00
4:52 PM,66.9,53.1,61,29.78,10.0,South,11.5,-,N/A,,Partly Cloudy,170,2012-11-10 22:52:00
5:52 PM,68.0,53.1,59,29.77,10.0,SSE,18.4,-,N/A,,Clear,160,2012-11-10 23:52:00
6:52 PM,68.0,53.1,59,29.77,10.0,South,19.6,-,N/A,,Clear,170,2012-11-11 00:52:00
7:52 PM,64.9,50.0,58,29.75,10.0,SSE,19.6,34.5,N/A,,Clear,160,2012-11-11 01:52:00
8:52 PM,64.9,46.0,50,29.75,10.0,South,25.3,35.7,N/A,,Clear,170,2012-11-11 02:52:00
9:52 PM,66.0,46.0,48,29.75,10.0,South,28.8,34.5,N/A,,Clear,180,2012-11-11 03:52:00
10:52 PM,64.9,46.9,52,29.76,10.0,South,36.8,49.5,N/A,,Clear,190,2012-11-11 04:52:00
11:52 PM,63.0,48.0,58,29.79,10.0,South,27.6,38.0,N/A,,Clear,180,2012-11-11 05:52:00